This is the latest recevied weather packets stored in our database for station/object KC7UNY-13. If no packets are shown the sender has not sent any weather packets the latest 10 day(s).
| Time | Temp. | Humidity | Pressure | Rain* | Wind** | Luminosity | Snow |
|---|---|---|---|---|---|---|---|
| 1777729522 | 23.89° C | 40% | 1013.3 hPa | 0 mm | - | 31 W/m² | - |
| 1777729219 | 23.33° C | 40% | 1013.3 hPa | 0 mm | - | 35 W/m² | - |
| 1777728916 | 22.78° C | 41% | 1013 hPa | 0 mm | - | 49 W/m² | - |
| 1777728613 | 22.78° C | 41% | 1012.8 hPa | 0 mm | - | 42 W/m² | - |
| 1777728310 | 22.22° C | 42% | 1012.9 hPa | 0 mm | - | 34 W/m² | - |
| 1777728007 | 22.22° C | 42% | 1012.9 hPa | 0 mm | - | 22 W/m² | - |
| 1777727704 | 22.22° C | 42% | 1012.7 hPa | 0 mm | - | 20 W/m² | - |
| 1777727400 | 22.22° C | 42% | 1012.5 hPa | 0 mm | - | 17 W/m² | - |
| 1777727098 | 22.22° C | 41% | 1012.7 hPa | 0 mm | - | 15 W/m² | - |
| 1777726795 | 22.22° C | 41% | 1012.4 hPa | 0 mm | - | 12 W/m² | - |
| 1777726492 | 21.67° C | 41% | 1012.6 hPa | 0 mm | - | 10 W/m² | - |
| 1777726189 | 21.67° C | 41% | 1012.3 hPa | 0 mm | - | 7 W/m² | - |
| 1777725886 | 21.67° C | 40% | 1012.4 hPa | 0 mm | - | 5 W/m² | - |
| 1777725584 | 21.67° C | 40% | 1012.2 hPa | 0 mm | - | 3 W/m² | - |
| 1777725280 | 21.67° C | 39% | 1012.3 hPa | 0 mm | - | 2 W/m² | - |
| 1777724978 | 21.67° C | 38% | 1012.2 hPa | 0 mm | - | 1 W/m² | - |
| 1777724673 | 21.67° C | 37% | 1012.2 hPa | 0 mm | - | 0 W/m² | - |
| 1777724372 | 21.67° C | 37% | 1012 hPa | 0 mm | - | 0 W/m² | - |
| 1777724069 | 21.67° C | 36% | 1012 hPa | 0 mm | - | 0 W/m² | - |
| 1777723767 | 21.11° C | 36% | 1012 hPa | 0 mm | - | 0 W/m² | - |
| 1777723462 | 20° C | 36% | 1011.8 hPa | 0 mm | - | 0 W/m² | - |
| 1777723160 | 19.44° C | 36% | 1011.8 hPa | 0 mm | - | 0 W/m² | - |
| 1777722857 | 19.44° C | 35% | 1011.7 hPa | 0 mm | - | 0 W/m² | - |
| 1777722553 | 19.44° C | 35% | 1011.7 hPa | 0 mm | - | 0 W/m² | - |
| 1777722250 | 18.89° C | 35% | 1011.7 hPa | 0 mm | - | 0 W/m² | - |
* Rain latest hour (hover to see other rain measurements)
** Current wind speed in m/s (hover to see current wind gust speed)